Location: Les Gen�tes
(46.3104°N, 1.5969°E)
Time: 12:42:18
(UTC+00:00)

ISS - Pass Details

Date: 01 June 2020
Orbit: 417 x 419 km, 51.6° (Epoch: 16 July)

Event Time Altitude Azimuth Distance (km) Brightness Sun altitude
Rises 21:04:36 0° 289° (WNW) 2,375 1.2 -11.8°
Reaches altitude 10° 21:07:02 10° 273° (W) 1,507 -0.3 -12.0°
Maximum altitude 21:09:38 21° 223° (SW) 1,017 -1.9 -12.3°
Enters shadow 21:11:21 15° 184° (S) 1,253 -1.8 -12.5°
